Location: Alfortville
(48.8058°N, 2.4204°E)
Time: 04:12:32
(UTC+00:00)

Cosmos 1980 Rocket - Pass Details

Date: 24 May 2022
Orbit: 827 x 851 km, 71.0° (Epoch: 06 July)

Event Time Altitude Azimuth Distance (km) Brightness Sun altitude
Rises 20:53:36 0° 192° (SSW) 3,367 5.0 -10.3°
Reaches altitude 10° 20:56:03 10° 189° (S) 2,440 4.2 -10.6°
Maximum altitude 21:01:31 57° 112° (ESE) 983 2.3 -11.1°
Drops below altitude 10° 21:07:04 10° 35° (NE) 2,473 4.9 -11.7°
Sets 21:09:33 0° 31° (NNE) 3,416 5.7 -11.9°
